Location: C�mpuri de-Sus
(45.9500°N, 22.5500°E)
Time: 06:10:05
(UTC+00:00)

Meteor 2-11 Rocket - Pass Details

Date: 24 October 2021
Orbit: 938 x 958 km, 82.5° (Epoch: 04 December)

Event Time Altitude Azimuth Distance (km) Brightness Sun altitude
Rises 17:50:38 0° 190° (S) 3,624 7.5 -25.3°
Reaches altitude 10° 17:53:07 10° 191° (S) 2,682 6.8 -25.8°
Maximum altitude 17:59:17 81° 279° (W) 974 4.4 -26.8°
Drops below altitude 10° 18:05:28 10° 7° (N) 2,695 6.8 -27.9°
Sets 18:07:59 0° 9° (N) 3,642 7.5 -28.3°
